Time,TemperatureF,DewpointF,PressureIn,WindDirection,WindDirectionDegrees,WindSpeedMPH,WindSpeedGustMPH,Humidity,HourlyPrecipIn,Conditions,Clouds,dailyrainin,SoftwareType,DateUTC
2013-05-29 00:01:00,54.9,48.0,29.77,SW,225,0.0,0.0,78,0.00,,,0.00,Rainwise IP-100,2013-05-29 07:01:00,
2013-05-29 00:06:00,54.8,48.0,29.77,SW,225,0.0,0.0,78,0.00,,,0.00,Rainwise IP-100,2013-05-29 07:06:00,
2013-05-29 00:11:00,54.7,48.0,29.76,SW,225,0.0,0.0,79,0.00,,,0.00,Rainwise IP-100,2013-05-29 07:11:00,
2013-05-29 00:16:00,54.5,48.0,29.76,SW,225,0.0,0.0,79,0.00,,,0.00,Rainwise IP-100,2013-05-29 07:16:00,
2013-05-29 00:21:00,54.4,48.0,29.76,SW,225,0.0,1.9,80,0.00,,,0.00,Rainwise IP-100,2013-05-29 07:21:00,
2013-05-29 00:26:00,54.4,48.0,29.76,SW,225,0.0,0.0,80,0.00,,,0.00,Rainwise IP-100,2013-05-29 07:26:00,
2013-05-29 00:31:00,54.2,48.0,29.75,SW,225,0.0,0.0,80,0.00,,,0.00,Rainwise IP-100,2013-05-29 07:31:00,
2013-05-29 00:36:00,54.1,48.0,29.75,SW,225,0.0,0.0,80,0.00,,,0.00,Rainwise IP-100,2013-05-29 07:36:00,
2013-05-29 00:41:00,54.1,48.0,29.75,SW,225,0.0,0.0,80,0.00,,,0.00,Rainwise IP-100,2013-05-29 07:41:00,
2013-05-29 00:46:00,54.1,48.0,29.75,SW,225,0.0,0.0,80,0.00,,,0.00,Rainwise IP-100,2013-05-29 07:46:00,
2013-05-29 00:51:00,54.0,48.0,29.75,SW,225,0.0,0.0,81,0.00,,,0.00,Rainwise IP-100,2013-05-29 07:51:00,
2013-05-29 00:56:00,53.9,48.0,29.75,SW,225,0.0,0.0,81,0.00,,,0.00,Rainwise IP-100,2013-05-29 07:56:00,
2013-05-29 01:01:00,53.8,48.0,29.75,SW,225,0.0,0.0,81,0.00,,,0.00,Rainwise IP-100,2013-05-29 08:01:00,
2013-05-29 01:06:00,53.7,47.5,29.74,SW,225,0.0,0.0,81,0.00,,,0.00,Rainwise IP-100,2013-05-29 08:06:00,
2013-05-29 01:11:00,53.7,48.0,29.74,SW,225,0.0,0.0,82,0.00,,,0.00,Rainwise IP-100,2013-05-29 08:11:00,
2013-05-29 01:16:00,53.6,48.0,29.74,SW,225,0.0,0.0,82,0.00,,,0.00,Rainwise IP-100,2013-05-29 08:16:00,
2013-05-29 01:21:00,53.6,47.5,29.74,SW,225,0.0,0.0,81,0.00,,,0.00,Rainwise IP-100,2013-05-29 08:21:00,
2013-05-29 01:26:00,53.7,48.0,29.74,SW,225,0.0,0.0,82,0.00,,,0.00,Rainwise IP-100,2013-05-29 08:26:00,
2013-05-29 01:31:00,53.7,48.0,29.74,SW,225,0.0,0.0,82,0.00,,,0.00,Rainwise IP-100,2013-05-29 08:31:00,
2013-05-29 01:36:00,53.6,48.0,29.74,SW,225,0.0,0.0,82,0.00,,,0.00,Rainwise IP-100,2013-05-29 08:36:00,
2013-05-29 01:41:00,53.6,48.0,29.74,SW,225,0.0,0.0,82,0.00,,,0.00,Rainwise IP-100,2013-05-29 08:41:00,
2013-05-29 01:46:00,53.6,48.0,29.73,SW,225,0.0,0.0,83,0.00,,,0.00,Rainwise IP-100,2013-05-29 08:46:00,
2013-05-29 01:51:00,53.5,48.0,29.73,SW,225,0.0,0.0,83,0.00,,,0.00,Rainwise IP-100,2013-05-29 08:51:00,
2013-05-29 01:56:00,53.4,48.0,29.72,SW,225,0.0,0.0,84,0.00,,,0.00,Rainwise IP-100,2013-05-29 08:56:00,
2013-05-29 02:01:00,53.1,48.0,29.72,SW,225,0.0,0.0,85,0.00,,,0.00,Rainwise IP-100,2013-05-29 09:01:00,
2013-05-29 02:06:00,52.9,48.0,29.72,SW,225,0.0,0.0,85,0.00,,,0.00,Rainwise IP-100,2013-05-29 09:06:00,
2013-05-29 02:11:00,52.8,48.0,29.72,SW,225,0.0,0.0,85,0.00,,,0.00,Rainwise IP-100,2013-05-29 09:11:00,
2013-05-29 02:16:00,52.6,48.0,29.71,SW,225,0.0,0.0,85,0.00,,,0.00,Rainwise IP-100,2013-05-29 09:16:00,
2013-05-29 02:21:00,52.4,48.0,29.71,SW,225,0.0,0.0,86,0.00,,,0.00,Rainwise IP-100,2013-05-29 09:21:00,
2013-05-29 02:26:00,52.2,48.0,29.71,SW,225,0.0,0.0,87,0.00,,,0.00,Rainwise IP-100,2013-05-29 09:26:00,
2013-05-29 02:30:00,52.1,48.0,29.71,SW,225,0.0,0.0,87,0.00,,,0.00,Rainwise IP-100,2013-05-29 09:30:00,
2013-05-29 02:35:00,52.0,48.0,29.71,SW,225,0.0,0.0,88,0.00,,,0.00,Rainwise IP-100,2013-05-29 09:35:00,
2013-05-29 02:40:00,52.0,49.0,29.71,SW,225,0.0,0.0,89,0.00,,,0.00,Rainwise IP-100,2013-05-29 09:40:00,
2013-05-29 02:45:00,51.9,49.0,29.70,SW,225,0.0,0.0,89,0.00,,,0.00,Rainwise IP-100,2013-05-29 09:45:00,
2013-05-29 02:50:00,51.9,49.0,29.70,SW,225,0.0,0.0,89,0.00,,,0.00,Rainwise IP-100,2013-05-29 09:50:00,
2013-05-29 02:55:00,51.8,49.0,29.70,SW,225,0.0,0.0,90,0.00,,,0.00,Rainwise IP-100,2013-05-29 09:55:00,
2013-05-29 03:00:00,51.8,49.0,29.69,SW,225,0.0,0.0,91,0.00,,,0.00,Rainwise IP-100,2013-05-29 10:00:00,
2013-05-29 03:05:00,51.8,49.0,29.70,SW,225,0.0,0.0,91,0.00,,,0.00,Rainwise IP-100,2013-05-29 10:05:00,
2013-05-29 03:10:00,51.8,49.0,29.69,SW,225,0.0,0.0,91,0.00,,,0.00,Rainwise IP-100,2013-05-29 10:10:00,
2013-05-29 03:15:00,51.8,49.0,29.69,SW,225,0.0,0.0,91,0.00,,,0.00,Rainwise IP-100,2013-05-29 10:15:00,
2013-05-29 03:20:00,51.8,50.0,29.69,SW,225,0.0,0.0,92,0.00,,,0.00,Rainwise IP-100,2013-05-29 10:20:00,
2013-05-29 03:25:00,51.8,50.0,29.69,SW,225,0.0,0.0,92,0.00,,,0.00,Rainwise IP-100,2013-05-29 10:25:00,
2013-05-29 03:30:00,51.8,50.0,29.69,SW,225,0.0,0.0,92,0.00,,,0.00,Rainwise IP-100,2013-05-29 10:30:00,
2013-05-29 03:35:00,51.8,50.0,29.69,SW,225,0.0,0.0,92,0.00,,,0.00,Rainwise IP-100,2013-05-29 10:35:00,
2013-05-29 03:40:00,51.9,50.0,29.69,SW,225,0.0,0.0,92,0.00,,,0.00,Rainwise IP-100,2013-05-29 10:40:00,
2013-05-29 03:45:00,52.0,50.0,29.70,SW,225,0.0,0.0,92,0.00,,,0.00,Rainwise IP-100,2013-05-29 10:45:00,
2013-05-29 03:50:00,52.3,50.0,29.70,WSW,247,3.0,0.0,92,0.00,,,0.00,Rainwise IP-100,2013-05-29 10:50:00,
2013-05-29 03:55:00,52.5,50.0,29.70,SW,225,1.4,6.1,90,0.00,,,0.00,Rainwise IP-100,2013-05-29 10:55:00,
2013-05-29 04:00:00,52.3,49.0,29.70,SW,225,1.2,2.3,89,0.00,,,0.00,Rainwise IP-100,2013-05-29 11:00:00,
2013-05-29 04:05:00,52.0,49.0,29.70,SW,225,1.6,2.8,89,0.00,,,0.00,Rainwise IP-100,2013-05-29 11:05:00,
2013-05-29 04:10:00,51.6,49.0,29.70,WSW,247,2.3,2.8,90,0.00,,,0.00,Rainwise IP-100,2013-05-29 11:10:00,
2013-05-29 04:15:00,51.2,48.0,29.70,WSW,247,0.0,2.8,90,0.00,,,0.00,Rainwise IP-100,2013-05-29 11:15:00,
2013-05-29 04:20:00,50.8,49.0,29.70,SSW,202,0.0,2.1,91,0.00,,,0.00,Rainwise IP-100,2013-05-29 11:20:00,
2013-05-29 04:25:00,50.6,48.0,29.70,South,180,0.0,1.9,92,0.06,,,0.01,Rainwise IP-100,2013-05-29 11:25:00,
2013-05-29 04:30:00,50.5,48.0,29.70,South,180,0.0,1.6,93,0.06,,,0.01,Rainwise IP-100,2013-05-29 11:30:00,
2013-05-29 04:35:00,50.3,48.0,29.70,South,180,0.0,0.0,93,0.00,,,0.01,Rainwise IP-100,2013-05-29 11:35:00,
2013-05-29 04:40:00,50.2,48.0,29.70,South,180,0.0,1.2,94,0.00,,,0.01,Rainwise IP-100,2013-05-29 11:40:00,
2013-05-29 04:45:00,50.1,48.0,29.70,South,180,0.0,0.0,94,0.00,,,0.01,Rainwise IP-100,2013-05-29 11:45:00,
2013-05-29 04:50:00,50.0,48.0,29.70,South,180,0.0,0.0,95,0.06,,,0.02,Rainwise IP-100,2013-05-29 11:50:00,
2013-05-29 04:55:00,49.9,48.0,29.70,South,180,0.0,0.0,95,0.12,,,0.03,Rainwise IP-100,2013-05-29 11:55:00,
2013-05-29 05:00:00,49.8,49.0,29.70,South,180,0.0,0.0,96,0.06,,,0.03,Rainwise IP-100,2013-05-29 12:00:00,
2013-05-29 05:05:00,49.8,49.0,29.70,South,180,0.0,0.0,96,0.00,,,0.03,Rainwise IP-100,2013-05-29 12:05:00,
2013-05-29 05:10:00,49.8,49.0,29.69,South,180,0.0,0.0,96,0.00,,,0.03,Rainwise IP-100,2013-05-29 12:10:00,
2013-05-29 05:15:00,49.8,49.0,29.70,South,180,0.0,0.0,96,0.00,,,0.03,Rainwise IP-100,2013-05-29 12:15:00,
2013-05-29 05:20:00,49.8,49.0,29.70,South,180,0.0,0.0,97,0.00,,,0.03,Rainwise IP-100,2013-05-29 12:20:00,
2013-05-29 05:25:00,49.8,49.0,29.70,South,180,0.0,0.0,97,0.06,,,0.04,Rainwise IP-100,2013-05-29 12:25:00,
2013-05-29 05:30:00,49.8,49.0,29.70,South,180,0.0,0.0,97,0.06,,,0.04,Rainwise IP-100,2013-05-29 12:30:00,
2013-05-29 05:35:00,49.8,49.0,29.70,South,180,0.0,0.0,97,0.00,,,0.04,Rainwise IP-100,2013-05-29 12:35:00,
2013-05-29 05:40:00,49.8,49.0,29.70,South,180,0.0,0.0,98,0.00,,,0.04,Rainwise IP-100,2013-05-29 12:40:00,
2013-05-29 05:45:00,49.8,49.0,29.70,South,180,0.0,0.0,98,0.06,,,0.05,Rainwise IP-100,2013-05-29 12:45:00,
2013-05-29 05:50:00,49.8,49.0,29.70,South,180,0.0,0.0,98,0.06,,,0.05,Rainwise IP-100,2013-05-29 12:50:00,
2013-05-29 05:55:00,49.9,49.0,29.70,South,180,0.0,0.0,98,0.00,,,0.05,Rainwise IP-100,2013-05-29 12:55:00,
2013-05-29 06:00:00,49.8,49.0,29.70,South,180,0.0,0.0,98,0.00,,,0.05,Rainwise IP-100,2013-05-29 13:00:00,
2013-05-29 06:05:00,49.8,49.0,29.70,South,180,0.0,0.0,98,0.00,,,0.05,Rainwise IP-100,2013-05-29 13:05:00,
2013-05-29 06:10:00,49.7,49.0,29.70,South,180,0.0,0.0,98,0.00,,,0.05,Rainwise IP-100,2013-05-29 13:10:00,
2013-05-29 06:15:00,49.6,49.0,29.70,South,180,0.0,0.0,98,0.00,,,0.05,Rainwise IP-100,2013-05-29 13:15:00,
2013-05-29 06:20:00,49.7,49.0,29.70,South,180,0.0,0.0,98,0.00,,,0.05,Rainwise IP-100,2013-05-29 13:20:00,
2013-05-29 06:25:00,49.7,49.0,29.70,South,180,0.0,0.0,98,0.00,,,0.05,Rainwise IP-100,2013-05-29 13:25:00,
2013-05-29 06:30:00,49.6,49.0,29.70,South,180,0.0,0.0,98,0.00,,,0.05,Rainwise IP-100,2013-05-29 13:30:00,
2013-05-29 06:35:00,49.7,49.0,29.70,South,180,0.0,0.0,98,0.00,,,0.05,Rainwise IP-100,2013-05-29 13:35:00,
2013-05-29 06:40:00,49.8,49.0,29.70,South,180,0.0,0.0,98,0.06,,,0.06,Rainwise IP-100,2013-05-29 13:40:00,
2013-05-29 06:45:00,49.8,49.0,29.70,South,180,0.0,0.0,98,0.06,,,0.06,Rainwise IP-100,2013-05-29 13:45:00,
2013-05-29 06:50:00,49.8,49.0,29.70,South,180,0.0,0.0,98,0.00,,,0.06,Rainwise IP-100,2013-05-29 13:50:00,
2013-05-29 06:55:00,49.9,49.0,29.69,South,180,0.0,0.0,98,0.06,,,0.07,Rainwise IP-100,2013-05-29 13:55:00,
2013-05-29 07:00:00,50.0,49.0,29.69,South,180,0.0,0.0,98,0.06,,,0.07,Rainwise IP-100,2013-05-29 14:00:00,
2013-05-29 07:05:00,50.0,49.0,29.70,South,180,0.0,0.0,98,0.00,,,0.07,Rainwise IP-100,2013-05-29 14:05:00,
2013-05-29 07:10:00,50.1,49.0,29.70,South,180,0.0,0.0,98,0.00,,,0.07,Rainwise IP-100,2013-05-29 14:10:00,
2013-05-29 07:15:00,50.1,49.0,29.69,South,180,0.0,0.0,98,0.00,,,0.07,Rainwise IP-100,2013-05-29 14:15:00,
2013-05-29 07:20:00,50.1,49.0,29.70,South,180,0.0,0.0,98,0.00,,,0.07,Rainwise IP-100,2013-05-29 14:20:00,
2013-05-29 07:25:00,50.3,50.0,29.70,South,180,0.0,0.0,98,0.00,,,0.07,Rainwise IP-100,2013-05-29 14:25:00,
2013-05-29 07:30:00,50.3,50.0,29.70,South,180,0.0,0.0,98,0.00,,,0.07,Rainwise IP-100,2013-05-29 14:30:00,
2013-05-29 07:35:00,50.4,50.0,29.70,South,180,0.0,0.0,98,0.00,,,0.07,Rainwise IP-100,2013-05-29 14:35:00,
2013-05-29 07:40:00,50.6,50.5,29.70,South,180,0.0,0.0,99,0.00,,,0.07,Rainwise IP-100,2013-05-29 14:40:00,
2013-05-29 07:45:00,50.7,50.5,29.70,South,180,0.0,0.0,99,0.00,,,0.07,Rainwise IP-100,2013-05-29 14:45:00,
2013-05-29 07:50:00,50.8,51.0,29.70,South,180,0.0,0.0,99,0.00,,,0.07,Rainwise IP-100,2013-05-29 14:50:00,
2013-05-29 07:55:00,50.8,51.0,29.70,South,180,0.0,0.0,99,0.00,,,0.07,Rainwise IP-100,2013-05-29 14:55:00,
2013-05-29 08:00:00,50.9,50.5,29.71,South,180,0.0,0.0,98,0.00,,,0.07,Rainwise IP-100,2013-05-29 15:00:00,
2013-05-29 08:05:00,50.9,50.5,29.71,South,180,0.0,0.0,98,0.00,,,0.07,Rainwise IP-100,2013-05-29 15:05:00,
2013-05-29 08:10:00,50.9,50.5,29.71,South,180,0.0,0.0,98,0.00,,,0.07,Rainwise IP-100,2013-05-29 15:10:00,
2013-05-29 08:15:00,50.9,50.5,29.71,South,180,0.0,0.0,98,0.00,,,0.07,Rainwise IP-100,2013-05-29 15:15:00,
2013-05-29 08:20:00,50.9,50.5,29.71,South,180,0.0,0.0,98,0.00,,,0.07,Rainwise IP-100,2013-05-29 15:20:00,
2013-05-29 08:25:00,51.0,50.5,29.71,South,180,0.0,0.0,98,0.00,,,0.07,Rainwise IP-100,2013-05-29 15:25:00,
2013-05-29 08:30:00,51.1,50.5,29.71,South,180,0.0,0.0,98,0.00,,,0.07,Rainwise IP-100,2013-05-29 15:30:00,
2013-05-29 08:35:00,51.3,50.5,29.71,South,180,0.0,0.0,98,0.00,,,0.07,Rainwise IP-100,2013-05-29 15:35:00,
2013-05-29 08:40:00,51.4,50.5,29.71,South,180,0.0,0.0,97,0.00,,,0.07,Rainwise IP-100,2013-05-29 15:40:00,
2013-05-29 08:45:00,51.4,50.0,29.72,South,180,0.0,0.0,96,0.00,,,0.07,Rainwise IP-100,2013-05-29 15:45:00,
2013-05-29 08:50:00,51.5,50.5,29.71,South,180,0.0,0.0,95,0.00,,,0.07,Rainwise IP-100,2013-05-29 15:50:00,
2013-05-29 08:55:00,51.6,50.5,29.71,South,180,0.0,0.0,95,0.00,,,0.07,Rainwise IP-100,2013-05-29 15:55:00,
2013-05-29 09:00:00,51.8,50.5,29.72,South,180,0.0,0.0,95,0.00,,,0.07,Rainwise IP-100,2013-05-29 16:00:00,
2013-05-29 09:05:00,52.0,50.5,29.72,South,180,0.0,0.0,95,0.00,,,0.07,Rainwise IP-100,2013-05-29 16:05:00,
2013-05-29 09:10:00,52.3,50.5,29.72,South,180,0.0,0.0,95,0.00,,,0.07,Rainwise IP-100,2013-05-29 16:10:00,
2013-05-29 09:15:00,52.6,51.0,29.72,South,180,0.0,0.0,94,0.00,,,0.07,Rainwise IP-100,2013-05-29 16:15:00,
2013-05-29 09:20:00,52.7,50.5,29.72,South,180,0.0,0.0,92,0.00,,,0.07,Rainwise IP-100,2013-05-29 16:20:00,
2013-05-29 09:25:00,52.7,50.5,29.72,South,180,0.0,0.0,92,0.00,,,0.07,Rainwise IP-100,2013-05-29 16:25:00,
2013-05-29 09:30:00,52.6,50.5,29.72,South,180,0.0,0.0,92,0.00,,,0.07,Rainwise IP-100,2013-05-29 16:30:00,
2013-05-29 09:35:00,52.6,50.5,29.72,South,180,0.0,0.0,92,0.00,,,0.07,Rainwise IP-100,2013-05-29 16:35:00,
2013-05-29 09:40:00,52.6,50.5,29.72,South,180,0.0,0.0,92,0.00,,,0.07,Rainwise IP-100,2013-05-29 16:40:00,
2013-05-29 09:45:00,52.6,50.0,29.72,South,180,0.0,0.0,91,0.00,,,0.07,Rainwise IP-100,2013-05-29 16:45:00,
2013-05-29 09:50:00,52.7,50.0,29.72,South,180,0.0,0.0,91,0.00,,,0.07,Rainwise IP-100,2013-05-29 16:50:00,
2013-05-29 09:55:00,52.8,50.0,29.72,South,180,0.0,0.0,91,0.00,,,0.07,Rainwise IP-100,2013-05-29 16:55:00,
2013-05-29 10:00:00,53.0,50.0,29.72,South,180,0.0,0.0,91,0.00,,,0.07,Rainwise IP-100,2013-05-29 17:00:00,
2013-05-29 10:06:00,53.1,50.0,29.73,South,180,0.0,0.0,91,0.00,,,0.07,Rainwise IP-100,2013-05-29 17:06:00,
2013-05-29 10:13:00,53.8,50.5,29.73,South,180,0.0,0.0,89,0.00,,,0.07,Rainwise IP-100,2013-05-29 17:13:00,
2013-05-29 10:18:00,54.2,50.5,29.73,South,180,0.0,0.0,89,0.00,,,0.07,Rainwise IP-100,2013-05-29 17:18:00,
2013-05-29 10:23:00,54.4,51.0,29.74,South,180,0.0,0.0,89,0.00,,,0.07,Rainwise IP-100,2013-05-29 17:23:00,
2013-05-29 10:28:00,54.5,52.0,29.74,South,180,0.0,0.0,90,0.00,,,0.07,Rainwise IP-100,2013-05-29 17:28:00,
2013-05-29 10:33:00,54.5,52.0,29.74,SSW,202,1.4,1.9,90,0.00,,,0.07,Rainwise IP-100,2013-05-29 17:33:00,
2013-05-29 10:38:00,54.3,51.0,29.74,SSW,202,0.0,1.4,89,0.00,,,0.07,Rainwise IP-100,2013-05-29 17:38:00,
2013-05-29 10:43:00,54.3,51.0,29.75,SSW,202,1.2,1.4,89,0.00,,,0.07,Rainwise IP-100,2013-05-29 17:43:00,
2013-05-29 10:48:00,54.6,51.0,29.75,SSW,202,0.0,1.4,89,0.00,,,0.07,Rainwise IP-100,2013-05-29 17:48:00,
2013-05-29 10:53:00,55.0,52.0,29.75,SSW,202,1.2,1.2,89,0.00,,,0.07,Rainwise IP-100,2013-05-29 17:53:00,
2013-05-29 10:58:00,55.1,51.0,29.75,SSW,202,0.0,1.6,87,0.00,,,0.07,Rainwise IP-100,2013-05-29 17:58:00,
2013-05-29 11:03:00,54.9,51.0,29.75,SSW,202,0.0,0.0,86,0.00,,,0.07,Rainwise IP-100,2013-05-29 18:03:00,
2013-05-29 11:08:00,55.0,52.0,29.75,SSW,202,0.0,0.0,88,0.00,,,0.07,Rainwise IP-100,2013-05-29 18:08:00,
2013-05-29 11:13:00,55.1,52.0,29.76,SSW,202,0.0,0.0,88,0.00,,,0.07,Rainwise IP-100,2013-05-29 18:13:00,
2013-05-29 11:18:00,55.0,51.0,29.76,SSW,202,0.0,0.0,87,0.00,,,0.07,Rainwise IP-100,2013-05-29 18:18:00,
2013-05-29 11:23:00,54.8,51.0,29.76,SSW,202,0.0,1.2,86,0.00,,,0.07,Rainwise IP-100,2013-05-29 18:23:00,
2013-05-29 11:28:00,54.6,50.0,29.76,SSW,202,0.0,0.0,84,0.00,,,0.07,Rainwise IP-100,2013-05-29 18:28:00,
2013-05-29 11:33:00,54.8,50.5,29.77,SSW,202,0.0,0.0,85,0.00,,,0.07,Rainwise IP-100,2013-05-29 18:33:00,
2013-05-29 11:38:00,55.1,50.5,29.77,SSW,202,1.2,1.2,85,0.00,,,0.07,Rainwise IP-100,2013-05-29 18:38:00,
2013-05-29 11:43:00,55.1,50.5,29.77,SSW,202,0.0,1.4,84,0.00,,,0.07,Rainwise IP-100,2013-05-29 18:43:00,
2013-05-29 11:48:00,55.2,50.5,29.77,SSW,202,0.0,0.0,84,0.00,,,0.07,Rainwise IP-100,2013-05-29 18:48:00,
2013-05-29 11:53:00,55.2,50.5,29.77,SSW,202,0.0,1.2,85,0.00,,,0.07,Rainwise IP-100,2013-05-29 18:53:00,
2013-05-29 11:58:00,55.1,50.5,29.77,SSW,202,0.0,1.4,84,0.00,,,0.07,Rainwise IP-100,2013-05-29 18:58:00,
2013-05-29 12:03:00,55.1,50.5,29.78,SSW,202,0.0,0.0,83,0.00,,,0.07,Rainwise IP-100,2013-05-29 19:03:00,
2013-05-29 12:08:00,55.3,50.0,29.78,SSE,157,1.2,1.6,81,0.00,,,0.07,Rainwise IP-100,2013-05-29 19:08:00,
2013-05-29 12:13:00,55.6,50.0,29.78,SSE,157,0.0,1.6,80,0.00,,,0.07,Rainwise IP-100,2013-05-29 19:13:00,
2013-05-29 12:18:00,56.0,50.0,29.78,SSW,202,1.2,2.6,79,0.00,,,0.07,Rainwise IP-100,2013-05-29 19:18:00,
2013-05-29 12:23:00,56.6,50.5,29.78,SSW,202,0.0,2.1,80,0.00,,,0.07,Rainwise IP-100,2013-05-29 19:23:00,
2013-05-29 12:28:00,57.1,51.0,29.79,SW,225,0.0,2.3,80,0.00,,,0.07,Rainwise IP-100,2013-05-29 19:28:00,
2013-05-29 12:33:00,57.5,50.5,29.78,South,180,0.0,2.1,78,0.00,,,0.07,Rainwise IP-100,2013-05-29 19:33:00,
2013-05-29 12:38:00,57.6,50.5,29.79,SSE,157,0.0,3.3,78,0.00,,,0.07,Rainwise IP-100,2013-05-29 19:38:00,
2013-05-29 12:43:00,57.8,51.0,29.80,SSW,202,0.0,2.1,78,0.00,,,0.07,Rainwise IP-100,2013-05-29 19:43:00,
2013-05-29 12:48:00,57.8,52.0,29.79,SW,225,2.1,2.1,79,0.00,,,0.07,Rainwise IP-100,2013-05-29 19:48:00,
2013-05-29 12:53:00,57.7,51.0,29.79,SW,225,1.2,3.0,79,0.00,,,0.07,Rainwise IP-100,2013-05-29 19:53:00,
2013-05-29 12:58:00,57.3,50.5,29.79,WSW,247,1.9,3.3,78,0.00,,,0.07,Rainwise IP-100,2013-05-29 19:58:00,
2013-05-29 13:03:00,56.6,50.0,29.80,SSW,202,2.1,3.5,78,0.00,,,0.07,Rainwise IP-100,2013-05-29 20:03:00,
2013-05-29 13:08:00,55.9,50.0,29.80,SW,225,0.0,2.8,80,0.00,,,0.07,Rainwise IP-100,2013-05-29 20:08:00,
2013-05-29 13:13:00,55.7,50.0,29.80,SSW,202,1.4,3.0,81,0.00,,,0.07,Rainwise IP-100,2013-05-29 20:13:00,
2013-05-29 13:18:00,55.8,50.5,29.80,WSW,247,1.2,3.0,82,0.00,,,0.07,Rainwise IP-100,2013-05-29 20:18:00,
2013-05-29 13:23:00,55.8,50.5,29.80,SW,225,0.0,2.1,82,0.00,,,0.07,Rainwise IP-100,2013-05-29 20:23:00,
2013-05-29 13:28:00,56.1,50.5,29.80,SSW,202,1.4,2.3,82,0.00,,,0.07,Rainwise IP-100,2013-05-29 20:28:00,
2013-05-29 13:33:00,56.3,51.0,29.80,SSW,202,1.4,2.6,82,0.00,,,0.07,Rainwise IP-100,2013-05-29 20:33:00,
2013-05-29 13:38:00,56.4,50.5,29.80,SSW,202,1.2,2.8,81,0.00,,,0.07,Rainwise IP-100,2013-05-29 20:38:00,
2013-05-29 13:43:00,56.7,50.5,29.80,WSW,247,1.9,3.0,81,0.00,,,0.07,Rainwise IP-100,2013-05-29 20:43:00,
2013-05-29 13:48:00,56.9,51.0,29.80,WSW,247,1.6,3.5,80,0.00,,,0.07,Rainwise IP-100,2013-05-29 20:48:00,
2013-05-29 13:53:00,57.1,51.0,29.80,WSW,247,1.2,3.3,80,0.00,,,0.07,Rainwise IP-100,2013-05-29 20:53:00,
2013-05-29 13:58:00,57.1,51.0,29.80,WSW,247,0.0,5.4,80,0.00,,,0.07,Rainwise IP-100,2013-05-29 20:58:00,
2013-05-29 14:03:00,57.0,51.0,29.81,WSW,247,0.0,4.0,80,0.00,,,0.07,Rainwise IP-100,2013-05-29 21:03:00,
2013-05-29 14:08:00,57.2,51.0,29.81,WSW,247,0.0,2.1,80,0.00,,,0.07,Rainwise IP-100,2013-05-29 21:08:00,
2013-05-29 14:13:00,57.3,51.0,29.81,SW,225,1.4,3.0,80,0.00,,,0.07,Rainwise IP-100,2013-05-29 21:13:00,
2013-05-29 14:18:00,57.5,51.0,29.81,SW,225,1.9,3.0,79,0.00,,,0.07,Rainwise IP-100,2013-05-29 21:18:00,
2013-05-29 14:23:00,57.9,52.0,29.82,WSW,247,3.0,5.4,79,0.00,,,0.07,Rainwise IP-100,2013-05-29 21:23:00,
2013-05-29 14:28:00,58.1,51.0,29.82,SW,225,0.0,4.4,77,0.00,,,0.07,Rainwise IP-100,2013-05-29 21:28:00,
2013-05-29 14:33:00,58.2,50.5,29.82,WSW,247,1.6,5.1,76,0.00,,,0.07,Rainwise IP-100,2013-05-29 21:33:00,
2013-05-29 14:38:00,58.3,50.5,29.82,SW,225,0.0,3.3,76,0.00,,,0.07,Rainwise IP-100,2013-05-29 21:38:00,
2013-05-29 14:43:00,58.4,50.5,29.82,SW,225,2.1,6.3,76,0.00,,,0.07,Rainwise IP-100,2013-05-29 21:43:00,
2013-05-29 14:48:00,58.8,50.5,29.82,SW,225,2.1,4.4,74,0.00,,,0.07,Rainwise IP-100,2013-05-29 21:48:00,
2013-05-29 14:53:00,59.1,50.0,29.83,SW,225,1.9,5.1,72,0.00,,,0.07,Rainwise IP-100,2013-05-29 21:53:00,
2013-05-29 14:58:00,59.1,50.0,29.83,South,180,3.0,5.1,71,0.00,,,0.07,Rainwise IP-100,2013-05-29 21:58:00,
2013-05-29 15:03:00,59.0,50.0,29.82,SSW,202,2.8,3.5,71,0.00,,,0.07,Rainwise IP-100,2013-05-29 22:03:00,
2013-05-29 15:08:00,58.9,50.0,29.82,SSW,202,3.3,3.7,72,0.00,,,0.07,Rainwise IP-100,2013-05-29 22:08:00,
2013-05-29 15:13:00,59.1,50.0,29.82,WSW,247,0.0,4.9,72,0.00,,,0.07,Rainwise IP-100,2013-05-29 22:13:00,
2013-05-29 15:18:00,59.6,50.0,29.82,WSW,247,2.3,4.4,70,0.00,,,0.07,Rainwise IP-100,2013-05-29 22:18:00,
2013-05-29 15:23:00,60.1,50.0,29.82,SW,225,2.3,7.7,69,0.00,,,0.07,Rainwise IP-100,2013-05-29 22:23:00,
2013-05-29 15:28:00,60.1,49.0,29.82,SW,225,1.6,6.1,68,0.00,,,0.07,Rainwise IP-100,2013-05-29 22:28:00,
2013-05-29 15:33:00,60.0,50.0,29.83,South,180,1.4,7.0,69,0.00,,,0.07,Rainwise IP-100,2013-05-29 22:33:00,
2013-05-29 15:38:00,60.7,50.5,29.83,WSW,247,2.3,6.1,70,0.00,,,0.07,Rainwise IP-100,2013-05-29 22:38:00,
2013-05-29 15:43:00,61.7,51.0,29.83,SSW,202,2.6,4.9,69,0.00,,,0.07,Rainwise IP-100,2013-05-29 22:43:00,
2013-05-29 15:48:00,62.0,51.0,29.83,WSW,247,2.6,6.1,67,0.00,,,0.07,Rainwise IP-100,2013-05-29 22:48:00,
2013-05-29 15:53:00,61.4,50.0,29.83,SSW,202,4.4,4.4,66,0.00,,,0.07,Rainwise IP-100,2013-05-29 22:53:00,
2013-05-29 15:58:00,60.6,49.0,29.83,SSW,202,1.2,4.9,66,0.00,,,0.07,Rainwise IP-100,2013-05-29 22:58:00,
2013-05-29 16:03:00,59.8,50.0,29.84,SSW,202,0.0,1.4,69,0.00,,,0.07,Rainwise IP-100,2013-05-29 23:03:00,
2013-05-29 16:08:00,59.1,50.0,29.84,SSW,202,1.4,1.6,72,0.00,,,0.07,Rainwise IP-100,2013-05-29 23:08:00,
2013-05-29 16:13:00,58.6,50.5,29.84,SW,225,1.2,2.3,74,0.00,,,0.07,Rainwise IP-100,2013-05-29 23:13:00,
2013-05-29 16:18:00,58.3,50.0,29.84,ENE,67,0.0,1.6,74,0.00,,,0.07,Rainwise IP-100,2013-05-29 23:18:00,
2013-05-29 16:23:00,58.1,50.5,29.85,ENE,67,0.0,0.0,76,0.00,,,0.07,Rainwise IP-100,2013-05-29 23:23:00,
2013-05-29 16:28:00,57.8,51.0,29.84,ENE,67,0.0,0.0,77,0.00,,,0.07,Rainwise IP-100,2013-05-29 23:28:00,
2013-05-29 16:33:00,57.4,50.5,29.84,ENE,67,0.0,0.0,78,0.00,,,0.07,Rainwise IP-100,2013-05-29 23:33:00,
2013-05-29 16:38:00,57.1,50.5,29.85,ENE,67,0.0,0.0,79,0.00,,,0.07,Rainwise IP-100,2013-05-29 23:38:00,
2013-05-29 16:43:00,56.8,51.0,29.85,ENE,67,0.0,1.4,80,0.00,,,0.07,Rainwise IP-100,2013-05-29 23:43:00,
2013-05-29 16:48:00,56.6,51.0,29.86,ENE,67,0.0,0.0,82,0.00,,,0.07,Rainwise IP-100,2013-05-29 23:48:00,
2013-05-29 16:53:00,56.5,51.0,29.85,ENE,67,0.0,0.0,83,0.00,,,0.07,Rainwise IP-100,2013-05-29 23:53:00,
2013-05-29 16:58:00,56.6,52.0,29.86,NE,45,0.0,0.0,84,0.00,,,0.07,Rainwise IP-100,2013-05-29 23:58:00,
2013-05-29 17:03:00,56.5,51.0,29.86,NNE,22,0.0,1.6,83,0.00,,,0.07,Rainwise IP-100,2013-05-30 00:03:00,
2013-05-29 17:08:00,56.4,51.0,29.86,NNE,22,1.2,3.0,83,0.00,,,0.07,Rainwise IP-100,2013-05-30 00:08:00,
2013-05-29 17:13:00,56.5,51.0,29.86,NNE,22,0.0,1.4,83,0.00,,,0.07,Rainwise IP-100,2013-05-30 00:13:00,
2013-05-29 17:18:00,56.6,52.0,29.87,NNE,22,0.0,0.0,84,0.00,,,0.07,Rainwise IP-100,2013-05-30 00:18:00,
2013-05-29 17:23:00,56.7,52.0,29.87,NNE,22,0.0,0.0,84,0.00,,,0.07,Rainwise IP-100,2013-05-30 00:23:00,
2013-05-29 17:28:00,56.8,52.0,29.87,NNE,22,0.0,0.0,84,0.00,,,0.07,Rainwise IP-100,2013-05-30 00:28:00,
2013-05-29 17:33:00,56.9,52.0,29.87,NNE,22,0.0,0.0,83,0.00,,,0.07,Rainwise IP-100,2013-05-30 00:33:00,
2013-05-29 17:38:00,56.9,52.0,29.87,NNE,22,0.0,2.1,83,0.00,,,0.07,Rainwise IP-100,2013-05-30 00:38:00,
2013-05-29 17:43:00,56.9,52.0,29.88,NNE,22,0.0,1.4,82,0.00,,,0.07,Rainwise IP-100,2013-05-30 00:43:00,
2013-05-29 17:48:00,56.8,51.0,29.88,NNE,22,0.0,1.6,81,0.00,,,0.07,Rainwise IP-100,2013-05-30 00:48:00,
2013-05-29 17:53:00,56.5,50.5,29.88,NNE,22,0.0,0.0,81,0.00,,,0.07,Rainwise IP-100,2013-05-30 00:53:00,
2013-05-29 17:58:00,56.1,50.0,29.88,North,0,0.0,0.0,81,0.00,,,0.07,Rainwise IP-100,2013-05-30 00:58:00,
2013-05-29 18:03:00,56.1,50.0,29.88,North,0,0.0,0.0,81,0.00,,,0.07,Rainwise IP-100,2013-05-30 01:03:00,
2013-05-29 18:08:00,56.0,50.0,29.88,North,0,0.0,0.0,81,0.00,,,0.07,Rainwise IP-100,2013-05-30 01:08:00,
2013-05-29 18:13:00,55.8,50.0,29.88,NNW,337,0.0,0.0,81,0.00,,,0.07,Rainwise IP-100,2013-05-30 01:13:00,
2013-05-29 18:18:00,55.8,50.0,29.88,NNE,22,0.0,0.0,81,0.00,,,0.07,Rainwise IP-100,2013-05-30 01:18:00,
2013-05-29 18:23:00,55.8,50.0,29.88,NE,45,2.6,2.6,81,0.00,,,0.07,Rainwise IP-100,2013-05-30 01:23:00,
2013-05-29 18:28:00,55.6,50.0,29.89,NE,45,1.6,2.6,80,0.00,,,0.07,Rainwise IP-100,2013-05-30 01:28:00,
2013-05-29 18:33:00,55.5,50.0,29.89,NE,45,0.0,1.6,80,0.00,,,0.07,Rainwise IP-100,2013-05-30 01:33:00,
2013-05-29 18:38:00,55.5,50.0,29.89,WNW,292,0.0,1.6,81,0.00,,,0.07,Rainwise IP-100,2013-05-30 01:38:00,
2013-05-29 18:43:00,55.5,50.0,29.89,WNW,292,0.0,2.3,81,0.00,,,0.07,Rainwise IP-100,2013-05-30 01:43:00,
2013-05-29 18:48:00,55.5,50.0,29.89,NNW,337,0.0,0.0,81,0.00,,,0.07,Rainwise IP-100,2013-05-30 01:48:00,
2013-05-29 18:53:00,55.5,50.0,29.89,NNW,337,0.0,0.0,81,0.00,,,0.07,Rainwise IP-100,2013-05-30 01:53:00,
2013-05-29 18:58:00,55.5,50.0,29.90,NNW,337,0.0,0.0,81,0.00,,,0.07,Rainwise IP-100,2013-05-30 01:58:00,
2013-05-29 19:03:00,55.4,50.0,29.89,NNW,337,0.0,0.0,81,0.00,,,0.07,Rainwise IP-100,2013-05-30 02:03:00,
2013-05-29 19:08:00,55.2,50.0,29.90,NNW,337,0.0,0.0,81,0.00,,,0.07,Rainwise IP-100,2013-05-30 02:08:00,
2013-05-29 19:13:00,55.1,50.0,29.90,NNW,337,0.0,1.2,81,0.00,,,0.07,Rainwise IP-100,2013-05-30 02:13:00,
2013-05-29 19:18:00,55.0,50.0,29.90,NNW,337,0.0,0.0,81,0.00,,,0.07,Rainwise IP-100,2013-05-30 02:18:00,
2013-05-29 19:23:00,55.0,50.0,29.90,NNW,337,0.0,0.0,81,0.00,,,0.07,Rainwise IP-100,2013-05-30 02:23:00,
2013-05-29 19:28:00,55.0,50.0,29.90,NNW,337,0.0,0.0,82,0.00,,,0.07,Rainwise IP-100,2013-05-30 02:28:00,
2013-05-29 19:33:00,55.0,50.0,29.90,NNW,337,0.0,0.0,82,0.00,,,0.07,Rainwise IP-100,2013-05-30 02:33:00,
2013-05-29 19:38:00,55.0,50.5,29.91,NNW,337,0.0,0.0,83,0.00,,,0.07,Rainwise IP-100,2013-05-30 02:38:00,
2013-05-29 19:43:00,55.0,50.5,29.91,NNE,22,0.0,0.0,83,0.00,,,0.07,Rainwise IP-100,2013-05-30 02:43:00,
2013-05-29 19:48:00,54.8,50.5,29.91,NNE,22,0.0,1.9,83,0.00,,,0.07,Rainwise IP-100,2013-05-30 02:48:00,
2013-05-29 19:53:00,54.6,50.0,29.91,NNE,22,0.0,1.6,83,0.00,,,0.07,Rainwise IP-100,2013-05-30 02:53:00,
2013-05-29 19:58:00,54.5,50.0,29.92,NNE,22,0.0,0.0,83,0.00,,,0.07,Rainwise IP-100,2013-05-30 02:58:00,
2013-05-29 20:03:00,54.4,50.0,29.91,NNE,22,0.0,0.0,83,0.00,,,0.07,Rainwise IP-100,2013-05-30 03:03:00,
2013-05-29 20:08:00,54.2,49.0,29.91,NNE,22,0.0,0.0,83,0.00,,,0.07,Rainwise IP-100,2013-05-30 03:08:00,
2013-05-29 20:13:00,54.1,49.0,29.91,NNE,22,0.0,1.2,83,0.00,,,0.07,Rainwise IP-100,2013-05-30 03:13:00,
2013-05-29 20:18:00,54.0,49.0,29.92,NNE,22,0.0,0.0,84,0.00,,,0.07,Rainwise IP-100,2013-05-30 03:18:00,
2013-05-29 20:23:00,53.8,49.0,29.92,NNE,22,0.0,0.0,84,0.00,,,0.07,Rainwise IP-100,2013-05-30 03:23:00,
2013-05-29 20:28:00,53.7,48.0,29.92,NNW,337,0.0,1.2,84,0.00,,,0.07,Rainwise IP-100,2013-05-30 03:28:00,
2013-05-29 20:33:00,53.7,48.0,29.92,NNW,337,0.0,0.0,84,0.00,,,0.07,Rainwise IP-100,2013-05-30 03:33:00,
2013-05-29 20:38:00,53.6,48.0,29.92,NNW,337,0.0,0.0,84,0.00,,,0.07,Rainwise IP-100,2013-05-30 03:38:00,
2013-05-29 20:43:00,53.6,48.0,29.92,North,0,0.0,1.2,84,0.00,,,0.07,Rainwise IP-100,2013-05-30 03:43:00,
2013-05-29 20:48:00,53.5,49.0,29.92,North,0,0.0,0.0,85,0.00,,,0.07,Rainwise IP-100,2013-05-30 03:48:00,
2013-05-29 20:53:00,53.4,49.0,29.92,North,0,0.0,0.0,85,0.00,,,0.07,Rainwise IP-100,2013-05-30 03:53:00,
2013-05-29 20:58:00,53.4,49.0,29.93,West,270,0.0,1.2,85,0.00,,,0.07,Rainwise IP-100,2013-05-30 03:58:00,
2013-05-29 21:01:00,53.4,49.0,29.93,West,270,0.0,1.2,85,0.00,,,0.07,Rainwise IP-100,2013-05-30 04:01:00,
2013-05-29 21:06:00,53.3,49.0,29.93,WSW,247,0.0,1.4,85,0.00,,,0.07,Rainwise IP-100,2013-05-30 04:06:00,
2013-05-29 21:11:00,53.3,49.0,29.93,WSW,247,0.0,0.0,85,0.00,,,0.07,Rainwise IP-100,2013-05-30 04:11:00,
2013-05-29 21:16:00,53.3,49.0,29.93,WSW,247,0.0,0.0,86,0.00,,,0.07,Rainwise IP-100,2013-05-30 04:16:00,
2013-05-29 21:21:00,53.3,49.0,29.93,WSW,247,0.0,0.0,86,0.00,,,0.07,Rainwise IP-100,2013-05-30 04:21:00,
2013-05-29 21:26:00,53.3,49.0,29.93,WSW,247,0.0,0.0,86,0.00,,,0.07,Rainwise IP-100,2013-05-30 04:26:00,
2013-05-29 21:31:00,53.3,49.0,29.93,WSW,247,0.0,1.2,86,0.00,,,0.07,Rainwise IP-100,2013-05-30 04:31:00,
2013-05-29 21:36:00,53.4,49.0,29.93,WSW,247,0.0,0.0,85,0.00,,,0.07,Rainwise IP-100,2013-05-30 04:36:00,
2013-05-29 21:41:00,53.4,49.0,29.93,NE,45,0.0,1.6,85,0.00,,,0.07,Rainwise IP-100,2013-05-30 04:41:00,
2013-05-29 21:46:00,53.5,49.0,29.94,SW,225,0.0,0.0,85,0.00,,,0.07,Rainwise IP-100,2013-05-30 04:46:00,
2013-05-29 21:51:00,53.6,48.0,29.94,SW,225,0.0,1.4,84,0.00,,,0.07,Rainwise IP-100,2013-05-30 04:51:00,
2013-05-29 21:56:00,53.7,48.0,29.94,SW,225,0.0,0.0,84,0.00,,,0.07,Rainwise IP-100,2013-05-30 04:56:00,
2013-05-29 22:01:00,53.7,48.0,29.95,SW,225,0.0,1.2,84,0.00,,,0.07,Rainwise IP-100,2013-05-30 05:01:00,
2013-05-29 22:06:00,53.8,49.0,29.95,SW,225,0.0,1.2,83,0.00,,,0.07,Rainwise IP-100,2013-05-30 05:06:00,
2013-05-29 22:11:00,53.9,49.0,29.95,SW,225,0.0,0.0,83,0.00,,,0.07,Rainwise IP-100,2013-05-30 05:11:00,
2013-05-29 22:16:00,54.0,48.0,29.95,SW,225,1.2,1.9,82,0.00,,,0.07,Rainwise IP-100,2013-05-30 05:16:00,
2013-05-29 22:21:00,54.2,48.0,29.95,SW,225,0.0,2.3,81,0.00,,,0.07,Rainwise IP-100,2013-05-30 05:21:00,
2013-05-29 22:26:00,54.4,49.0,29.95,SSW,202,1.4,2.8,81,0.00,,,0.07,Rainwise IP-100,2013-05-30 05:26:00,
2013-05-29 22:31:00,54.5,48.0,29.95,South,180,0.0,2.8,80,0.00,,,0.07,Rainwise IP-100,2013-05-30 05:31:00,
2013-05-29 22:36:00,54.5,48.0,29.95,WSW,247,1.6,1.6,80,0.00,,,0.07,Rainwise IP-100,2013-05-30 05:36:00,
2013-05-29 22:41:00,54.6,48.0,29.95,WSW,247,1.4,2.1,80,0.00,,,0.07,Rainwise IP-100,2013-05-30 05:41:00,
2013-05-29 22:46:00,54.5,48.0,29.95,SW,225,0.0,2.6,80,0.00,,,0.07,Rainwise IP-100,2013-05-30 05:46:00,
2013-05-29 22:51:00,54.5,48.0,29.95,SW,225,2.1,5.6,80,0.00,,,0.07,Rainwise IP-100,2013-05-30 05:51:00,
2013-05-29 22:56:00,54.3,48.0,29.96,SW,225,0.0,4.7,80,0.00,,,0.07,Rainwise IP-100,2013-05-30 05:56:00,
2013-05-29 23:01:00,54.2,48.0,29.96,WSW,247,3.3,4.4,80,0.00,,,0.07,Rainwise IP-100,2013-05-30 06:01:00,
2013-05-29 23:06:00,54.0,48.0,29.96,SSW,202,1.6,4.4,80,0.00,,,0.07,Rainwise IP-100,2013-05-30 06:06:00,
2013-05-29 23:11:00,53.8,48.0,29.96,WSW,247,1.2,4.4,81,0.00,,,0.07,Rainwise IP-100,2013-05-30 06:11:00,
2013-05-29 23:16:00,53.6,48.0,29.96,SSW,202,1.2,4.2,82,0.00,,,0.07,Rainwise IP-100,2013-05-30 06:16:00,
2013-05-29 23:21:00,53.6,48.0,29.96,SW,225,0.0,4.0,82,0.00,,,0.07,Rainwise IP-100,2013-05-30 06:21:00,
2013-05-29 23:26:00,53.6,48.0,29.96,WSW,247,1.9,4.9,83,0.00,,,0.07,Rainwise IP-100,2013-05-30 06:26:00,
2013-05-29 23:31:00,53.5,48.0,29.96,WSW,247,0.0,4.0,83,0.00,,,0.07,Rainwise IP-100,2013-05-30 06:31:00,
2013-05-29 23:36:00,53.4,48.0,29.96,SW,225,0.0,3.3,84,0.00,,,0.07,Rainwise IP-100,2013-05-30 06:36:00,
2013-05-29 23:41:00,53.3,48.0,29.97,SW,225,1.2,3.0,84,0.00,,,0.07,Rainwise IP-100,2013-05-30 06:41:00,
2013-05-29 23:46:00,53.2,48.0,29.96,SW,225,0.0,4.9,85,0.00,,,0.07,Rainwise IP-100,2013-05-30 06:46:00,
2013-05-29 23:51:00,53.1,48.0,29.97,SSW,202,1.9,3.3,86,0.00,,,0.07,Rainwise IP-100,2013-05-30 06:51:00,
2013-05-29 23:56:00,53.0,49.0,29.97,SW,225,1.6,3.0,87,0.00,,,0.07,Rainwise IP-100,2013-05-30 06:56:00,